#timestamp,LO_Frequency,Hit 
1500289215.9,286046659.9,N
1500289235.7,286046659.6,N
1500289255.5,286046657.4,N
1500289275.4,286046657.8,N
1500289295.2,286046658.2,N
1500289315.0,286046658.4,N
1500289315.9,286046658.4,N
1500289335.8,286046658.1,N
1500289355.6,286046656.2,N
1500289375.4,286046655.9,N
1500289395.3,286046655.3,N
1500289415.1,286046654.6,N
1500289416.0,286046654.6,N
1500289435.8,286046656.8,N
1500289455.7,286046657.1,N
1500289475.5,286046656.9,N
1500289495.3,286046654.3,N
1500289515.1,286046654.6,N
1500289535.9,286046652.5,N
1500289555.7,286046655.0,N
1500289575.5,286046652.5,N
1500289595.4,286046653.2,N
1500289615.2,286046653.0,N
1500289635.0,286046653.0,N
1500289635.9,286046653.0,N
1500289655.8,286046653.1,N
1500289675.6,286046651.7,N
1500289695.4,286046649.5,N
1500289715.3,286046652.4,N
1500289735.1,286046651.8,N
1500289755.8,286046649.8,N
1500289775.7,286046650.0,N
1500289795.5,286046648.3,N
1500289815.3,286046649.1,N
1500289835.2,286046649.1,N
1500289855.9,286046644.5,N
1500289875.7,286046647.1,N
1500289895.6,286046646.7,N
1500289915.4,286046646.3,N
1500289935.2,286046647.9,N
1500289955.0,286046648.3,N
1500289956.0,286046648.3,N
1500289975.8,286046648.0,N
1500289995.6,286046648.2,N
1500290015.4,286046648.0,N
1500290035.3,286046647.9,N
1500290055.1,286046647.8,N
1500290075.8,286046650.7,N
1500290095.7,286046649.1,N
1500290115.5,286046646.6,N
1500290135.3,286046644.5,N
1500290155.2,286046645.5,N
1500290175.9,286046645.9,N
1500290195.7,286046643.5,N
1500290215.6,286046641.8,N
1500290235.4,286046640.6,N
1500290255.2,286046638.6,N
1500290275.1,286046638.9,N
1500290276.0,286046638.9,N
1500290295.8,286046639.1,N
1500290315.6,286046639.0,N
1500290335.5,286046638.7,N
1500290355.3,286046638.1,N
1500290375.1,286046639.4,N
1500290395.9,286046640.8,N
1500290415.7,286046641.0,N
1500290435.5,286046642.8,N
1500290455.3,286046642.6,N
1500290475.2,286046642.6,N
1500290495.0,286046642.8,N
1500290495.9,286046642.8,N
1500290515.7,286046641.9,N
1500290535.6,286046641.9,N
1500290555.4,286046640.2,N
1500290575.2,286046640.9,N
1500290595.1,286046638.4,N
1500290596.0,286046638.4,N
1500290615.8,286046638.4,N
1500290635.6,286046638.2,N
1500290655.5,286046639.4,N
1500290675.3,286046636.5,N
1500290695.1,286046637.3,N
1500290715.9,286046639.5,N
1500290735.7,286046638.0,N
1500290755.5,286046635.5,N
1500290775.4,286046633.6,N
1500290795.2,286046636.4,N
1500290815.0,286046634.0,N
1500290815.9,286046634.0,N
1500290835.8,286046633.7,N
1500290855.6,286046633.2,N
1500290875.4,286046632.3,N
1500290895.3,286046632.1,N
1500290915.1,286046632.6,N
1500290916.0,286046632.6,N
1500290935.8,286046633.0,N
1500290955.6,286046630.2,N
1500290975.5,286046631.2,N
1500290995.3,286046630.1,N
1500291015.1,286046633.0,N
1500291035.9,286046631.4,N
1500291055.7,286046630.2,N
1500291075.5,286046630.3,N
1500291095.4,286046630.7,N
1500291115.2,286046630.0,N
1500291135.0,286046625.8,N
1500291135.9,286046625.8,N
1500291155.8,286046627.0,N
1500291175.6,286046629.6,N
1500291195.4,286046627.5,N
1500291215.3,286046629.6,N
1500291235.1,286046627.5,N
1500291255.8,286046628.0,N
1500291275.7,286046623.8,N
1500291295.5,286046626.1,N
1500291315.3,286046627.0,N
1500291335.2,286046625.4,N
1500291355.9,286046629.6,N
1500291375.7,286046629.8,N
1500291395.6,286046630.0,N
1500291415.4,286046627.3,N
1500291435.2,286046629.6,N
1500291455.1,286046627.0,N
1500291456.0,286046627.0,N
1500291475.8,286046625.3,N
1500291495.6,286046628.3,N
1500291515.4,286046626.3,N
1500291535.3,286046623.9,N
1500291555.1,286046623.0,N
1500291575.8,286046624.7,N
1500291595.7,286046620.6,N
1500291615.5,286046623.4,N
1500291635.3,286046622.8,N
1500291655.2,286046623.9,N
1500291675.0,286046626.3,N
1500291675.9,286046626.3,N
1500291695.7,286046626.1,N
1500291715.6,286046624.0,N
1500291735.4,286046622.3,N
1500291755.2,286046624.7,N
1500291775.1,286046625.0,N
1500291776.0,286046625.0,N
1500291795.8,286046624.7,N
1500291815.6,286046623.9,N
1500291835.5,286046624.5,N
1500291855.3,286046626.7,N
1500291875.1,286046627.6,N
1500291895.9,286046626.4,N
1500291915.7,286046625.6,N
1500291935.5,286046626.2,N
1500291955.4,286046623.7,N
1500291975.2,286046625.1,N
1500291995.0,286046622.6,N
1500291995.9,286046622.6,N
1500292015.8,286046621.4,N
1500292035.6,286046618.9,N
1500292055.4,286046622.9,N
1500292075.2,286046619.0,N
1500292095.1,286046619.3,N
1500292096.0,286046619.3,N
1500292115.8,286046620.9,N
1500292135.6,286046619.2,N
1500292155.5,286046617.4,N
1500292175.3,286046617.6,N
1500292195.1,286046620.3,N
1500292215.9,286046620.1,N
1500292235.7,286046618.7,N
1500292255.5,286046616.0,N
1500292275.4,286046617.0,N
1500292295.2,286046617.2,N
1500292315.0,286046615.7,N
1500292315.9,286046615.7,N
1500292335.8,286046618.5,N
1500292355.6,286046616.2,N
1500292375.4,286046618.6,N
1500292395.3,286046619.2,N
1500292415.1,286046616.2,N
1500292416.0,286046616.2,N
1500292435.8,286046616.7,N
1500292455.7,286046616.2,N
1500292475.5,286046618.3,N
1500292495.3,286046617.4,N
1500292515.2,286046620.2,N
1500292535.9,286046617.5,N
1500292555.7,286046618.5,N
1500292575.6,286046614.7,N
1500292595.4,286046615.2,N
1500292615.2,286046614.6,N
1500292635.0,286046616.3,N
1500292635.9,286046616.3,N
1500292655.8,286046612.5,N
1500292675.6,286046614.9,N
1500292695.4,286046614.9,N
1500292715.3,286046615.0,N
1500292735.1,286046615.3,N
1500292755.8,286046615.1,N
1500292775.7,286046613.1,N
1500292795.5,286046612.6,N
